TimePDT,TemperatureF,Dew PointF,Humidity,Sea Level PressureIn,VisibilityMPH,Wind Direction,Wind SpeedMPH,Gust SpeedMPH,PrecipitationIn,Events,Conditions,WindDirDegrees,DateUTC
12:54 AM,42.1,39.9,92,30.33,10.0,SSW,3.5,-,N/A,,Clear,210,2013-04-09 07:54:00
1:54 AM,41.0,39.0,93,30.32,10.0,South,3.5,-,N/A,,Clear,190,2013-04-09 08:54:00
2:54 AM,41.0,39.9,96,30.32,10.0,Calm,Calm,-,N/A,,Clear,0,2013-04-09 09:54:00
3:54 AM,42.1,39.9,92,30.32,10.0,Calm,Calm,-,N/A,,Clear,0,2013-04-09 10:54:00
4:54 AM,41.0,39.9,96,30.34,10.0,Calm,Calm,-,N/A,,Mostly Cloudy,0,2013-04-09 11:54:00
5:10 AM,41.0,39.2,93,30.33,10.0,Calm,Calm,-,N/A,,Mostly Cloudy,0,2013-04-09 12:10:00
5:54 AM,41.0,39.9,96,30.34,10.0,Calm,Calm,-,N/A,,Mostly Cloudy,0,2013-04-09 12:54:00
6:29 AM,41.0,39.2,93,30.34,10.0,Calm,Calm,-,N/A,,Mostly Cloudy,0,2013-04-09 13:29:00
6:54 AM,42.1,39.9,92,30.35,10.0,Calm,Calm,-,N/A,,Mostly Cloudy,0,2013-04-09 13:54:00
7:54 AM,43.0,41.0,93,30.35,10.0,Calm,Calm,-,N/A,Fog,Patches of Fog,0,2013-04-09 14:54:00
8:54 AM,46.0,42.1,86,30.36,10.0,Calm,Calm,-,N/A,,Overcast,0,2013-04-09 15:54:00
9:54 AM,48.9,44.1,83,30.36,10.0,Calm,Calm,-,N/A,,Overcast,0,2013-04-09 16:54:00
10:54 AM,50.0,44.1,80,30.38,10.0,ENE,3.5,-,N/A,,Overcast,60,2013-04-09 17:54:00
11:54 AM,52.0,44.1,74,30.37,10.0,Calm,Calm,-,N/A,,Overcast,0,2013-04-09 18:54:00
12:54 PM,54.0,44.1,69,30.35,10.0,Calm,Calm,-,N/A,,Overcast,0,2013-04-09 19:54:00
1:54 PM,55.0,44.1,67,30.35,10.0,NW,3.5,-,N/A,,Overcast,310,2013-04-09 20:54:00
2:54 PM,57.0,44.1,62,30.33,10.0,Calm,Calm,-,N/A,,Overcast,0,2013-04-09 21:54:00
3:54 PM,57.9,44.1,60,30.32,10.0,NE,3.5,-,N/A,,Overcast,50,2013-04-09 22:54:00
4:54 PM,59.0,42.1,53,30.32,10.0,North,3.5,-,N/A,,Overcast,350,2013-04-09 23:54:00
5:54 PM,60.1,43.0,53,30.30,10.0,Calm,Calm,-,N/A,,Mostly Cloudy,0,2013-04-10 00:54:00
6:54 PM,59.0,46.0,62,30.30,10.0,Calm,Calm,-,N/A,,Overcast,0,2013-04-10 01:54:00
7:54 PM,53.1,45.0,74,30.29,10.0,East,3.5,-,N/A,,Mostly Cloudy,100,2013-04-10 02:54:00
8:54 PM,51.1,45.0,80,30.29,10.0,Calm,Calm,-,N/A,,Scattered Clouds,0,2013-04-10 03:54:00
9:54 PM,48.0,44.1,86,30.30,10.0,Calm,Calm,-,N/A,,Scattered Clouds,0,2013-04-10 04:54:00
10:54 PM,48.9,45.0,86,30.30,10.0,SSW,3.5,-,N/A,,Clear,210,2013-04-10 05:54:00
11:54 PM,45.0,43.0,93,30.28,10.0,SSW,5.8,-,N/A,,Clear,200,2013-04-10 06:54:00